M0CJS Weather Reports


Display with metric or nautical units.
time (UTC)temp
F
wind
direction
speed
MPH
gust
MPH
rain 1hr
in
rain 24hr
in
rain mn
in
humidity
%
barometer
mb
20260831193016 59 315 5.0 10.0 0.00 0.56 0.55 82 1018.7
20260831192016 59 293 4.0 6.0 0.00 0.56 0.55 84 1018.5
20260831191016 60 293 3.0 7.0 0.00 0.56 0.55 82 1018.4
20260831190016 60 293 4.0 9.0 0.00 0.56 0.55 81 1018.2
20260831185018 61 315 6.0 12.0 0.00 0.56 0.55 80 1018.0
20260831184016 62 293 6.0 9.0 0.00 0.56 0.55 80 1018.0
20260831183018 62 293 6.0 10.0 0.00 0.56 0.55 80 1017.8
20260831182058 62 293 4.0 9.0 0.00 0.56 0.55 81 1017.7
20260831181016 62 293 4.0 8.0 0.00 0.56 0.55 81 1017.6
20260831180016 62 293 5.0 10.0 0.00 0.56 0.55 81 1017.4
20260831175021 62 293 4.0 8.0 0.00 0.56 0.55 82 1017.4
20260831174016 63 293 5.0 10.0 0.00 0.56 0.55 81 1017.2
20260831173015 63 293 7.0 13.0 0.00 0.56 0.55 80 1017.1
20260831172152 64 315 7.0 13.0 0.00 0.56 0.55 80 1016.9
20260831171016 64 293 6.0 13.0 0.00 0.56 0.55 80 1016.8
20260831170037 64 315 8.0 14.0 0.00 0.56 0.55 79 1016.7
20260831165015 65 315 6.0 11.0 0.00 0.56 0.55 77 1016.6
20260831164015 66 293 7.0 13.0 0.00 0.56 0.55 77 1016.4
20260831163015 65 293 5.0 10.0 0.00 0.56 0.55 77 1016.3
20260831162016 66 293 7.0 13.0 0.00 0.56 0.55 77 1016.2
20260831161016 66 293 7.0 15.0 0.00 0.56 0.55 77 1016.1
20260831160015 66 293 6.0 10.0 0.00 0.56 0.55 78 1016.0
20260831155035 66 293 6.0 10.0 0.00 0.56 0.55 78 1015.9
20260831154015 66 315 7.0 14.0 0.00 0.56 0.55 76 1015.8
20260831153035 66 315 7.0 13.0 0.00 0.56 0.55 76 1015.7
20260831152015 66 315 6.0 10.0 0.00 0.56 0.55 77 1015.6
20260831151015 66 315 6.0 10.0 0.00 0.56 0.55 78 1015.5
20260831150015 67 315 8.0 13.0 0.00 0.56 0.55 74 1015.5
20260831145015 67 0 6.0 15.0 0.00 0.56 0.55 77 1015.3
20260831144015 67 293 8.0 13.0 0.00 0.56 0.55 76 1015.3
20260831143015 67 270 6.0 13.0 0.00 0.56 0.55 78 1015.2
20260831142015 67 293 6.0 11.0 0.00 0.56 0.55 79 1014.9
20260831141015 67 293 8.0 15.0 0.00 0.56 0.55 77 1014.8
20260831140015 67 293 7.0 15.0 0.00 0.56 0.55 78 1014.7
20260831135015 67 293 7.0 12.0 0.00 0.56 0.55 79 1014.4
20260831134017 65 293 6.0 13.0 0.00 0.56 0.55 83 1014.4
20260831133017 66 293 8.0 15.0 0.00 0.56 0.55 82 1014.3
20260831132017 66 293 8.0 13.0 0.00 0.56 0.55 83 1014.3
20260831131017 66 293 8.0 13.0 0.00 0.56 0.55 84 1014.1
20260831130037 65 293 8.0 15.0 0.00 0.56 0.55 86 1014.2
20260831125017 65 293 7.0 14.0 0.00 0.56 0.55 85 1013.9
20260831124017 65 293 8.0 12.0 0.00 0.56 0.55 85 1013.7
20260831123017 65 270 5.0 10.0 0.02 0.56 0.55 88 1013.5
20260831122017 66 315 7.0 14.0 0.03 0.56 0.55 86 1013.4
20260831121017 66 315 6.0 11.0 0.03 0.56 0.55 90 1013.2
20260831120037 66 293 6.0 12.0 0.03 0.56 0.55 93 1013.1
20260831115017 65 293 6.0 10.0 0.03 0.56 0.55 94 1013.0
20260831114017 63 293 4.0 8.0 0.03 0.56 0.55 95 1012.8
20260831113017 63 293 5.0 10.0 0.02 0.54 0.54 94 1012.7
20260831112017 63 0 6.0 11.0 0.00 0.53 0.52 91 1012.7
20260831111017 63 293 8.0 13.0 0.00 0.53 0.52 90 1012.5
20260831110017 63 293 5.0 11.0 0.00 0.53 0.52 89 1012.3
20260831105057 63 293 6.0 11.0 0.00 0.53 0.52 88 1012.1
20260831104017 63 293 6.0 11.0 0.00 0.53 0.52 90 1012.0
20260831103037 62 293 5.0 11.0 0.00 0.53 0.52 90 1011.9
20260831102017 64 293 7.0 13.0 0.00 0.53 0.52 85 1011.8
20260831101017 64 293 7.0 12.0 0.00 0.53 0.52 83 1011.7
20260831100017 64 293 7.0 16.0 0.00 0.53 0.52 83 1011.6
20260831095017 66 293 7.0 13.0 0.00 0.53 0.52 81 1011.5
20260831094017 67 270 5.0 10.0 0.00 0.53 0.52 82 1011.4
20260831093016 65 293 7.0 12.0 0.00 0.53 0.52 82 1011.3
20260831092017 63 270 4.0 13.0 0.00 0.53 0.52 88 1011.1
20260831091016 62 270 7.0 11.0 0.00 0.53 0.52 87 1011.0
20260831090017 63 270 6.0 11.0 0.00 0.53 0.52 86 1010.9
20260831085016 64 293 5.0 11.0 0.00 0.53 0.52 84 1010.6
20260831084016 64 270 4.0 8.0 0.00 0.53 0.52 86 1010.5
20260831083016 63 270 7.0 11.0 0.00 0.53 0.52 86 1010.3
20260831082017 63 293 7.0 12.0 0.00 0.53 0.52 87 1009.9
20260831081017 62 293 4.0 9.0 0.00 0.53 0.52 89 1009.8
20260831080016 61 270 5.0 9.0 0.00 0.53 0.52 89 1009.7
20260831075016 60 270 5.0 11.0 0.00 0.53 0.52 91 1009.5
20260831074016 60 270 4.0 8.0 0.00 0.53 0.52 92 1009.5
20260831073016 60 270 4.0 10.0 0.00 0.53 0.52 92 1009.3
20260831072016 59 270 5.0 10.0 0.00 0.53 0.52 92 1009.2
20260831071036 59 270 3.0 9.0 0.00 0.53 0.52 93 1009.1
20260831070016 58 270 3.0 8.0 0.00 0.53 0.52 95 1008.9
20260831065016 57 270 3.0 8.0 0.00 0.53 0.52 97 1008.7
20260831064016 56 270 2.0 4.0 0.00 0.53 0.52 97 1008.5
20260831063016 56 270 3.0 6.0 0.00 0.53 0.52 98 1008.4
20260831062016 55 248 2.0 6.0 0.00 0.53 0.52 98 1008.1
20260831061036 54 225 2.0 7.0 0.00 0.53 0.52 99 1007.8
20260831060016 54 225 2.0 7.0 0.00 0.53 0.52 99 1007.7
20260831055016 54 248 2.0 6.0 0.00 0.53 0.52 98 1007.6
20260831054016 53 225 1.0 5.0 0.00 0.53 0.52 98 1007.5
20260831053016 53 248 1.0 4.0 0.00 0.53 0.52 98 1007.3
20260831052016 54 248 1.0 4.0 0.00 0.53 0.52 98 1007.0
20260831051016 53 0.0 2.0 0.00 0.53 0.52 98 1007.0
20260831050016 54 270 1.0 2.0 0.00 0.53 0.52 98 1006.8
20260831045036 54 270 2.0 4.0 0.00 0.53 0.52 98 1006.7
20260831044016 54 248 1.0 5.0 0.00 0.53 0.52 98 1006.7
20260831043016 54 248 2.0 4.0 0.00 0.53 0.52 98 1006.6
20260831042016 54 225 2.0 6.0 0.00 0.53 0.52 98 1006.5
20260831041016 54 248 2.0 8.0 0.00 0.53 0.52 98 1006.4
20260831040016 54 225 3.0 7.0 0.00 0.53 0.52 98 1006.2
20260831035016 55 225 3.0 8.0 0.00 0.53 0.52 98 1006.2
20260831034016 55 225 2.0 6.0 0.00 0.53 0.52 98 1006.2
20260831033016 55 225 3.0 8.0 0.00 0.53 0.52 98 1006.1
20260831032016 55 225 3.0 7.0 0.00 0.53 0.52 98 1006.2
20260831031016 55 225 2.0 6.0 0.00 0.53 0.52 98 1006.1
20260831030016 55 225 2.0 5.0 0.00 0.54 0.52 98 1006.0
20260831025016 55 203 5.0 10.0 0.01 0.54 0.52 98 1005.8
20260831024036 55 203 5.0 8.0 0.02 0.54 0.52 98 1005.7
20260831023016 55 203 4.0 6.0 0.04 0.54 0.52 98 1005.7
20260831022016 55 225 2.0 6.0 0.09 0.54 0.52 98 1005.5
20260831021016 55 225 3.0 6.0 0.16 0.54 0.52 98 1005.6
20260831020016 55 203 3.0 5.0 0.26 0.54 0.52 98 1005.5
20260831015036 56 225 1.0 4.0 0.37 0.54 0.51 98 1005.5
20260831014036 56 225 1.0 3.0 0.47 0.53 0.50 98 1005.6
20260831013056 55 270 2.0 3.0 0.48 0.50 0.48 98 1005.5
20260831012036 55 23 3.0 5.0 0.43 0.46 0.43 97 1004.9
20260831011035 55 23 3.0 6.0 0.36 0.39 0.36 97 1005.1
20260831010016 55 293 3.0 6.0 0.26 0.28 0.26 96 1005.4
20260831005016 57 293 8.0 15.0 0.14 0.17 0.14 96 1005.6
20260831004016 59 225 5.0 12.0 0.03 0.06 0.03 94 1005.5
20260831003015 59 0.0 3.0 0.00 0.02 0.00 92 1005.2
20260831002016 60 203 3.0 9.0 0.00 0.02 0.00 91 1005.2
20260831001015 59 180 2.0 6.0 0.00 0.02 0.00 91 1005.1
20260831000015 59 180 3.0 8.0 0.00 0.02 0.00 91 1005.1
20260830235016 59 158 2.0 4.0 0.00 0.02 0.00 92 1005.3
20260830234016 59 180 3.0 7.0 0.00 0.02 0.00 92 1005.4
20260830233015 59 203 5.0 9.0 0.00 0.02 0.00 92 1005.4
20260830232015 59 203 4.0 9.0 0.00 0.02 0.00 92 1005.6
20260830231015 59 225 2.0 4.0 0.00 0.02 0.00 92 1005.6
20260830230015 59 225 3.0 9.0 0.00 0.05 0.02 91 1005.9
20260830225016 60 203 5.0 14.0 0.00 0.05 0.02 91 1005.8
20260830224016 60 225 6.0 10.0 0.00 0.05 0.02 89 1005.8
20260830223055 61 203 10.0 17.0 0.00 0.05 0.02 88 1005.8
20260830222016 61 203 9.0 17.0 0.00 0.05 0.02 87 1005.7
20260830221015 61 203 10.0 21.0 0.00 0.05 0.02 85 1005.8
20260830220016 62 225 10.0 20.0 0.00 0.06 0.02 84 1005.8
20260830215015 63 203 11.0 25.0 0.00 0.06 0.02 84 1005.6
20260830214015 63 203 8.0 30.0 0.00 0.06 0.02 84 1005.4
20260830213035 63 158 6.0 17.0 0.00 0.06 0.02 84 1005.3
20260830212015 63 158 4.0 8.0 0.00 0.06 0.02 85 1005.4
20260830211015 63 158 4.0 14.0 0.00 0.06 0.02 85 1005.5
20260830210015 63 158 2.0 9.0 0.01 0.06 0.02 86 1005.5
20260830205015 61 158 1.0 5.0 0.01 0.06 0.02 93 1005.6
20260830204015 61 0.0 0.0 0.01 0.06 0.02 94 1005.8
20260830203015 61 0.0 1.0 0.01 0.06 0.02 94 1005.9
20260830202015 61 270 1.0 3.0 0.01 0.06 0.02 93 1006.1
20260830201015 62 270 2.0 9.0 0.01 0.06 0.02 91 1006.3
20260830200035 63 203 5.0 13.0 0.00 0.06 0.02 84 1006.1
20260830195017 63 180 3.0 11.0 0.00 0.06 0.02 85 1006.2
20260830194017 62 0.0 0.0 0.00 0.06 0.02 91 1006.3